Regional Weather Roundup
Issued by NWS

Home | Current Version | Previous Version | Text Only | Print | Product List | Glossary Off
Versions: 1 2 3 4 5 6 7 8 9 10 11 12 13 14 15 16 17 18 19 20 21 22 23 24 25 26 27 28 29 30 31 32 33 34 35 36 37 38 39 40 41 42 43 44 45 46 47 48 49 50

000
ASUS43 KIND 261359
RWRIN

WEATHER ROUNDUP FOR INDIANA
NATIONAL WEATHER SERVICE INDIANAPOLIS IN
900 AM EST SUN FEB 26 2017

NOTE: "FAIR" INDICATES FEW OR NO CLOUDS BELOW 12,000 FEET WITH NO
SIGNIFICANT WEATHER AND/OR OBSTRUCTIONS TO VISIBILITY.

* - STATION DOES NOT REPORT WEATHER SUCH AS PRECIPITATION OR FOG.

+ - STATION NOT QUALITY CONTROLLED BY THE NATIONAL WEATHER SERVICE.
    USE DATA WITH CAUTION...ESPECIALLY DEWPOINT AND RELATIVE
    HUMIDITY OBSERVATIONS.

INZ001>003-010>013-019-020-261500-
NORTHWEST INDIANA

CITY           SKY/WX    TMP DP  RH WIND       PRES   REMARKS
GARY /AIRPORT/ PTSUNNY   28  18  64 S5        30.05S WCI  23
KNOX *+        MOSUNNY   27   5  39 S10       30.08S WCI  17

$$

LMZ046-743>745-261500-
SOUTHERN LAKE MICHIGAN

STATION/POSITION TIME  TEMP    WIND        PRES    WAVE
                       AIR SEA DIR/SP/G            HT
                 (UTC) (F)     (DEG/KT/KT) (MB)    (FT)
BURNS HARBOR     1340   26     170/ 12/ 16 1017.6F
MICHIGAN CITY    1330   25     140/ 12/ 15   N/A

$$

INZ004-005-014>016-021>024-261500-
NORTH CENTRAL INDIANA

CITY           SKY/WX    TMP DP  RH WIND       PRES   REMARKS
GOSHEN         MOSUNNY   25  16  68 S12       30.09S WCI  14
SOUTH BEND     PTSUNNY   25  18  74 S9        30.07S WCI  15

$$

INZ006>009-017-018-025>027-261500-
NORTHEAST INDIANA

CITY           SKY/WX    TMP DP  RH WIND       PRES   REMARKS
ANGOLA *+      MOSUNNY   25  19  80 SW7       30.08R WCI  17
FORT WAYNE     MOSUNNY   24  17  74 SW10      30.13R WCI  14
KENDALLVILLE + MOSUNNY   26  18  72 S8        30.09S WCI  17

$$

INZ028-029-035-036-043>045-051>053-261500-
WEST CENTRAL INDIANA

CITY           SKY/WX    TMP DP  RH WIND       PRES   REMARKS
LAFAYETTE      SUNNY     26  20  77 S8        30.13S WCI  18
TERRE HAUTE    SUNNY     28  18  66 S12       30.17R WCI  18

$$

INZ030>032-037>040-046>048-054>057-064-065-261500-
CENTRAL INDIANA

CITY           SKY/WX    TMP DP  RH WIND       PRES   REMARKS
COLUMBUS       SUNNY     27  19  74 S6        30.19F WCI  20
GREENWOOD *+   SUNNY     28  19  70 S7        30.17S WCI  21
INDIANAPOLIS   MOSUNNY   26  19  74 S9        30.17R WCI  17
-EAGLE CREEK   SUNNY     27  18  69 S7        30.15S WCI  19
KOKOMO +       SUNNY     26  21  81 S12       30.13S WCI  16
MT COMFORT *+  SUNNY     25  19  80 S6        30.15F WCI  18
SHELBYVILLE    SUNNY     28  18  66 S6        30.16S WCI  22

$$

INZ033-034-041-042-049-050-058-059-261500-
EAST CENTRAL INDIANA

CITY           SKY/WX    TMP DP  RH WIND       PRES   REMARKS
MUNCIE         SUNNY     27  19  72 S7        30.15R WCI  19

$$

INZ060-061-067>069-081>083-085>088-261500-
SOUTHWEST INDIANA

CITY           SKY/WX    TMP DP  RH WIND       PRES   REMARKS
EVANSVILLE     SUNNY     32  19  58 SE7       30.23R WCI  26
HUNTINGBURG *+ SUNNY     28  21  74 SE6       30.23R WCI  22

$$

INZ062-063-066-070>080-084-089>092-261500-
SOUTH CENTRAL AND SOUTHEAST INDIANA

CITY           SKY/WX    TMP DP  RH WIND       PRES   REMARKS
BLOOMINGTON    SUNNY     27  18  69 SE5       30.18R WCI  22
MADISON *+     SUNNY     30  19  64 S5        30.22F WCI  25
SEYMOUR +      SUNNY     30  21  69 S5        30.21F WCI  25

$$





USA.gov is the U.S. government's official web portal to all federal, state and local government web resources and services.